1519146001.03,14752,10.81,72578.3,-13.55,-15.57,-15.63,0,*60
1519146002.28,14753,10.81,72580.5,-13.57,-15.49,-15.63,0,*6C
1519146003.49,14754,10.81,72582.5,-13.55,-15.49,-15.63,0,*69
1519146004.7,14755,10.81,72580.0,-13.55,-15.49,-15.63,0,*68
1519146005.92,14756,10.81,72578.0,-13.55,-15.63,-15.63,0,*63
1519146007.16,14757,10.81,72582.5,-13.55,-15.49,-15.57,0,*6D
1519146008.4,14758,10.81,72582.0,-13.55,-15.49,-15.57,0,*62
1519146009.64,14759,10.81,72580.3,-13.55,-15.43,-15.49,0,*66
1519146010.88,14760,10.81,72584.0,-13.55,-15.49,-15.57,0,*69
1519146012.15,14761,10.81,72582.8,-13.55,-15.43,-15.57,0,*62
1519146013.39,14762,10.81,72580.8,-13.55,-15.57,-15.63,0,*63
1519146014.6,14763,10.81,72582.8,-13.55,-15.63,-15.71,0,*66
1519146015.84,14764,10.81,72582.0,-13.55,-15.57,-15.71,0,*66
1519146017.06,14765,10.81,72582.5,-13.55,-15.63,-15.71,0,*60
1519146018.32,14766,10.81,72588.5,-13.55,-15.57,-15.57,0,*60
1519146019.59,14767,10.81,72586.3,-13.57,-15.43,-15.63,0,*61
1519146020.8,14768,10.81,72580.0,-13.55,-15.53,-15.67,0,*69
1519146022.07,14769,10.81,72580.0,-13.55,-15.43,-15.57,0,*6A
1519146023.28,14770,10.81,72582.8,-13.55,-15.49,-15.63,0,*6F
1519146024.52,14771,10.81,72584.5,-13.55,-15.43,-15.63,0,*64
1519146025.76,14772,10.81,72582.0,-13.55,-15.43,-15.63,0,*67
1519146027.04,14773,10.81,72584.0,-13.57,-15.43,-15.63,0,*64
1519146028.25,14774,10.81,72590.3,-13.55,-15.49,-15.71,0,*68
1519146029.52,14775,10.81,72586.8,-13.55,-15.39,-15.57,0,*6A
1519146030.78,14776,10.81,72580.5,-13.55,-15.43,-15.57,0,*64
1519146032.02,14777,10.81,72580.5,-13.55,-15.49,-15.57,0,*6F
1519146033.29,14778,10.81,72582.0,-13.55,-15.39,-15.43,0,*62
1519146034.54,14779,10.81,72580.3,-13.55,-15.39,-15.49,0,*69
1519146035.81,14780,10.81,72580.0,-13.57,-15.43,-15.63,0,*68
1519146037.09,14781,10.81,72588.5,-13.57,-15.39,-15.49,0,*6C
1519146038.37,14782,10.81,72584.8,-13.57,-15.43,-15.49,0,*62
1519146039.65,14783,10.81,72580.5,-13.57,-15.29,-15.43,0,*65
1519146040.9,14784,10.81,72580.3,-13.55,-15.39,-15.49,0,*6B
1519146042.17,14785,10.81,72590.5,-13.55,-15.39,-15.43,0,*60
1519146043.44,14786,10.81,72586.3,-13.55,-15.39,-15.43,0,*63
1519146044.68,14787,10.81,72586.8,-13.55,-15.43,-15.49,0,*65
1519146045.95,14788,10.81,72584.0,-13.55,-15.39,-15.43,0,*6D
1519146047.17,14789,10.81,72582.8,-13.55,-15.29,-15.49,0,*67
1519146048.44,14790,10.81,72582.0,-13.55,-15.39,-15.43,0,*64
1519146049.71,14791,10.81,72580.8,-13.55,-15.39,-15.43,0,*65
1519146050.99,14792,10.81,72582.8,-13.57,-15.39,-15.49,0,*6E
1519146052.27,14793,10.81,72586.0,-13.57,-15.29,-15.43,0,*64
1519146053.57,14794,10.81,72590.8,-13.57,-15.39,-15.43,0,*62
1519146054.85,14795,10.81,72590.0,-13.57,-15.29,-15.43,0,*62
1519146056.13,14796,10.81,72582.8,-13.57,-15.39,-15.49,0,*6A
1519146057.43,14797,10.81,72582.8,-13.57,-15.39,-15.43,0,*61
1519146058.69,14798,10.81,72586.8,-13.57,-15.29,-15.49,0,*65
1519146059.95,14799,10.81,72586.8,-13.57,-15.29,-15.29,0,*62
1519146061.23,14800,10.81,72590.5,-13.57,-15.29,-15.39,0,*6C
1519146062.49,14801,10.81,72586.5,-13.57,-15.29,-15.29,0,*6C
1519146063.79,14802,10.81,72580.8,-13.57,-15.39,-15.43,0,*62
1519146065.04,14803,10.81,72582.3,-13.55,-15.29,-15.39,0,*6D
1519146066.32,14804,10.81,72590.5,-13.57,-15.29,-15.39,0,*68
1519146067.54,14805,10.81,72586.0,-13.55,-15.29,-15.29,0,*6A
1519146068.76,14806,10.81,72582.0,-13.55,-15.29,-15.29,0,*69
1519146070.03,14807,10.81,72588.5,-13.55,-15.39,-15.43,0,*65
1519146071.31,14808,10.81,72590.0,-13.57,-15.29,-15.39,0,*64
1519146072.56,14809,10.81,72580.8,-13.55,-15.29,-15.39,0,*67
1519146073.81,14810,10.81,72582.5,-13.55,-15.39,-15.29,0,*6F
1519146075.03,14811,10.81,72580.3,-13.55,-15.29,-15.29,0,*6F
1519146076.26,14812,10.81,72582.0,-13.55,-15.29,-15.29,0,*6C
1519146077.5,14813,10.81,72584.5,-13.55,-15.29,-15.39,0,*6C
1519146078.78,14814,10.81,72586.8,-13.57,-15.29,-15.39,0,*69
1519146080.04,14815,10.81,72586.0,-13.57,-15.29,-15.29,0,*69
1519146081.3,14816,10.81,72582.0,-13.57,-15.29,-15.29,0,*6A
1519146082.58,14817,10.81,72584.8,-13.57,-15.29,-15.39,0,*6A
1519146083.84,14818,10.81,72582.3,-13.57,-15.29,-15.29,0,*64
1519146085.1,14819,10.81,72584.8,-13.57,-15.29,-15.29,0,*65
1519146086.36,14820,10.81,72584.5,-13.57,-15.29,-15.29,0,*6F
1519146087.64,14821,10.81,72586.0,-13.57,-15.29,-15.39,0,*6F
1519146088.89,14822,10.81,72582.0,-13.57,-15.29,-15.29,0,*6D
1519146090.15,14823,10.81,72584.5,-13.57,-15.29,-15.29,0,*6C
1519146091.41,14824,10.81,72582.0,-13.57,-15.29,-15.29,0,*6B
1519146092.69,14825,10.81,72582.8,-13.57,-15.29,-15.39,0,*6B
1519146093.95,14826,10.81,72584.5,-13.57,-15.15,-15.29,0,*66
1519146095.2,14827,10.81,72584.3,-13.57,-15.25,-15.29,0,*64
1519146096.46,14828,10.81,72582.5,-13.57,-15.29,-15.29,0,*67
1519146097.72,14829,10.81,72584.0,-13.57,-15.29,-15.29,0,*66
1519146098.98,14830,10.81,72588.8,-13.57,-15.29,-15.29,0,*6E
1519146100.26,14831,10.81,72586.5,-13.57,-15.29,-15.39,0,*6E
1519146101.54,14832,10.81,72582.0,-13.57,-15.29,-15.39,0,*6D
1519146102.8,14833,10.81,72584.5,-13.57,-15.29,-15.29,0,*6D
1519146104.05,14834,10.81,72586.8,-13.57,-15.29,-15.29,0,*6A
1519146105.32,14835,10.81,72586.5,-13.53,-15.21,-15.25,0,*6B
1519146106.55,14836,10.81,72584.0,-13.55,-15.25,-15.29,0,*66
1519146107.77,14837,10.81,72590.0,-13.55,-15.25,-15.29,0,*67
1519146108.99,14838,10.81,72586.0,-13.55,-15.25,-15.29,0,*68
1519146110.22,14839,10.81,72588.5,-13.55,-15.15,-15.29,0,*6A
1519146111.46,14840,10.81,72592.0,-13.55,-15.29,-15.39,0,*6A
1519146112.69,14841,10.75,72582.8,-13.55,-15.29,-15.29,0,*6A
1519146113.91,14842,10.81,72582.5,-13.55,-15.25,-15.29,0,*65
1519146115.14,14843,10.81,72580.5,-13.55,-15.25,-15.29,0,*64
1519146116.36,14844,10.81,72584.8,-13.55,-15.15,-15.29,0,*60
1519146117.63,14845,10.81,72580.0,-13.53,-15.21,-15.25,0,*6C
1519146118.88,14846,10.81,72576.8,-13.57,-15.25,-15.29,0,*63
1519146120.11,14847,10.81,72576.8,-13.55,-15.25,-15.29,0,*60
1519146121.33,14848,10.81,72578.8,-13.55,-15.25,-15.29,0,*6F
1519146122.56,14849,10.81,72578.5,-13.55,-15.25,-15.29,0,*6E
1519146123.78,14850,10.81,72578.5,-13.55,-15.15,-15.25,0,*69
1519146125.0,14851,10.81,72574.5,-13.55,-15.25,-15.29,0,*67
1519146126.23,14852,10.81,72572.3,-13.55,-15.25,-15.29,0,*64
1519146127.49,14853,10.81,72574.8,-13.53,-15.21,-15.25,0,*6B
1519146128.76,14854,10.81,72574.0,-13.53,-15.21,-15.25,0,*6C
1519146129.98,14855,10.81,72574.5,-13.55,-15.25,-15.29,0,*63
1519146131.25,14856,10.81,72572.3,-13.53,-15.25,-15.35,0,*6B
1519146132.48,14857,10.81,72576.5,-13.55,-15.25,-15.29,0,*61
1519146133.74,14858,10.81,72580.8,-13.53,-15.25,-15.35,0,*65
1519146135.04,14859,10.81,72584.8,-13.53,-15.35,-15.43,0,*64
1519146136.29,14860,10.81,72584.8,-13.55,-15.43,-15.49,0,*63
1519146137.53,14861,10.81,72588.5,-13.55,-15.29,-15.39,0,*69
1519146138.78,14862,10.81,72590.3,-13.55,-15.29,-15.43,0,*67
1519146140.03,14863,10.81,72584.0,-13.55,-15.29,-15.39,0,*6B
1519146141.27,14864,10.81,72580.5,-13.55,-15.29,-15.39,0,*6C
1519146142.55,14865,10.75,72576.0,-13.57,-15.29,-15.39,0,*6F
1519146143.78,14866,10.81,72586.3,-13.55,-15.25,-15.29,0,*63
1519146145.02,14867,10.81,72590.5,-13.55,-15.15,-15.39,0,*60
1519146146.25,14868,10.81,72590.0,-13.55,-15.15,-15.29,0,*6E
1519146147.47,14869,10.81,72584.8,-13.55,-15.25,-15.29,0,*6C
1519146148.69,14870,10.81,72580.8,-13.55,-15.15,-15.29,0,*67
1519146149.97,14871,10.81,72586.0,-13.57,-15.25,-15.39,0,*66
1519146151.23,14872,10.81,72582.5,-13.57,-15.25,-15.29,0,*64
1519146152.49,14873,10.81,72582.3,-13.59,-15.21,-15.35,0,*62
1519146153.75,14874,10.81,72576.8,-13.57,-15.25,-15.25,0,*6E
1519146155.01,14875,10.81,72582.8,-13.57,-15.29,-15.29,0,*6F
1519146156.26,14876,10.81,72576.0,-13.57,-15.25,-15.29,0,*60
1519146157.52,14877,10.81,72580.3,-13.57,-15.25,-15.29,0,*61
1519146158.78,14878,10.81,72584.5,-13.57,-15.15,-15.29,0,*6D
1519146160.04,14879,10.81,72576.8,-13.57,-15.15,-15.29,0,*6C
1519146161.29,14880,10.81,72586.3,-13.57,-15.15,-15.29,0,*6A
1519146162.55,14881,10.81,72580.0,-13.57,-15.15,-15.25,0,*67
1519146163.77,14882,10.81,72582.5,-13.55,-15.15,-15.25,0,*66
1519146165.0,14883,10.81,72582.3,-13.55,-15.15,-15.25,0,*67
1519146166.25,14884,10.81,72584.5,-13.57,-15.25,-15.25,0,*61
1519146167.48,14885,10.81,72580.5,-13.55,-15.25,-15.25,0,*62
1519146168.7,14886,10.81,72580.0,-13.55,-15.25,-15.29,0,*6D
1519146169.95,14887,10.81,72584.5,-13.55,-15.15,-15.39,0,*6E
1519146171.17,14888,10.81,72582.8,-13.55,-15.25,-15.29,0,*63
1519146172.43,14889,10.81,72586.5,-13.57,-15.15,-15.25,0,*6F
1519146173.66,14890,10.81,72588.5,-13.53,-15.07,-15.11,0,*67
1519146174.87,14891,10.81,72576.8,-13.55,-15.11,-15.15,0,*63
1519146176.1,14892,10.81,72580.5,-13.55,-15.25,-15.25,0,*64
1519146177.37,14893,10.81,72580.0,-13.53,-15.21,-15.25,0,*67
1519146178.62,14894,10.81,72578.8,-13.57,-15.25,-15.29,0,*6C
1519146179.87,14895,10.81,72580.0,-13.57,-15.25,-15.15,0,*62
1519146181.12,14896,10.81,72586.8,-13.57,-15.15,-15.15,0,*62
1519146182.37,14897,10.81,72580.0,-13.57,-15.25,-15.15,0,*60
1519146183.63,14898,10.75,72572.5,-13.57,-15.25,-15.29,0,*60
1519146184.88,14899,10.81,72580.3,-13.57,-15.25,-15.15,0,*6E
1519146186.14,14900,10.81,72582.3,-13.57,-15.25,-15.25,0,*6C
1519146187.36,14901,10.81,72580.0,-13.55,-15.25,-15.25,0,*6F
1519146188.58,14902,10.81,72582.0,-13.55,-15.15,-15.25,0,*6F
1519146189.81,14903,10.81,72582.0,-13.55,-15.25,-15.25,0,*6D
1519146191.06,14904,10.81,72588.0,-13.57,-15.15,-15.11,0,*6C
1519146192.31,14905,10.81,72582.5,-13.57,-15.25,-15.15,0,*6A
1519146193.55,14906,10.81,72580.3,-13.57,-15.11,-15.15,0,*6E
1519146194.81,14907,10.81,72580.3,-13.57,-15.15,-15.25,0,*68
1519146196.06,14908,10.81,72584.3,-13.57,-15.25,-15.25,0,*64
1519146197.31,14909,10.81,72580.0,-13.57,-15.15,-15.15,0,*65
1519146198.56,14910,10.81,72580.8,-13.57,-15.25,-15.15,0,*6E
1519146199.78,14911,10.81,72586.8,-13.55,-15.15,-15.15,0,*6E
1519146201.0,14912,10.81,72576.5,-13.55,-15.25,-15.15,0,*6E
1519146202.22,14913,10.81,72584.5,-13.55,-15.15,-15.25,0,*6F
1519146203.44,14914,10.81,72586.5,-13.55,-15.15,-15.25,0,*68
1519146204.67,14915,10.81,72586.0,-13.55,-15.15,-15.25,0,*69
1519146205.88,14916,10.81,72584.5,-13.55,-15.25,-15.15,0,*6A
1519146207.11,14917,10.81,72580.0,-13.55,-15.25,-15.25,0,*68
1519146208.36,14918,10.81,72588.0,-13.55,-15.39,-15.29,0,*66
1519146209.58,14919,10.81,72584.5,-13.55,-15.29,-15.29,0,*66
1519146210.8,14920,10.81,72582.8,-13.55,-15.29,-15.29,0,*6C
1519146212.03,14921,10.81,72580.5,-13.55,-15.29,-15.29,0,*6D
1519146213.25,14922,10.81,72580.3,-13.55,-15.29,-15.29,0,*6E
1519146214.51,14923,10.81,72578.3,-13.57,-15.25,-15.25,0,*6D
1519146215.77,14924,10.75,72574.0,-13.57,-15.25,-15.25,0,*6A
1519146217.02,14925,10.81,72582.0,-13.57,-15.25,-15.25,0,*6B
1519146218.28,14926,10.81,72578.8,-13.57,-15.25,-15.25,0,*68
1519146219.54,14927,10.81,72572.5,-13.57,-15.25,-15.29,0,*65
1519146220.77,14928,10.81,72578.8,-13.59,-15.25,-15.25,0,*68
1519146222.02,14929,10.81,72590.3,-13.57,-15.29,-15.29,0,*67
1519146223.29,14930,10.81,72584.5,-13.59,-15.43,-15.35,0,*60
1519146224.57,14931,10.81,72580.3,-13.57,-15.29,-15.43,0,*62
1519146225.88,14932,10.81,72582.5,-13.57,-15.39,-15.39,0,*6D
1519146227.15,14933,10.81,72580.0,-13.59,-15.35,-15.43,0,*63
1519146228.4,14934,10.81,72580.5,-13.57,-15.29,-15.29,0,*6B
1519146229.66,14935,10.81,72578.3,-13.57,-15.29,-15.29,0,*6A
1519146230.92,14936,10.81,72578.8,-13.57,-15.29,-15.29,0,*69
1519146232.18,14937,10.81,72576.0,-13.57,-15.29,-15.25,0,*64
1519146233.43,14938,10.81,72580.5,-13.59,-15.35,-15.29,0,*64
1519146234.69,14939,10.81,72580.3,-13.57,-15.29,-15.25,0,*6A
1519146235.94,14940,10.81,72574.3,-13.57,-15.29,-15.25,0,*64
1519146237.25,14941,10.81,72578.8,-13.57,-15.39,-15.39,0,*69
1519146238.53,14942,10.81,72580.3,-13.57,-15.39,-15.29,0,*6B
1519146239.81,14943,10.81,72582.8,-13.57,-15.39,-15.29,0,*6A
1519146241.07,14944,10.81,72582.5,-13.57,-15.29,-15.29,0,*6C
1519146242.37,14945,10.81,72580.3,-13.57,-15.39,-15.39,0,*6D
1519146243.68,14946,10.81,72580.3,-13.57,-15.39,-15.39,0,*6E
1519146244.98,14947,10.81,72582.8,-13.57,-15.43,-15.43,0,*6F
1519146246.29,14948,10.75,72580.5,-13.57,-15.43,-15.39,0,*6D
1519146247.55,14949,10.81,72578.5,-13.59,-15.43,-15.35,0,*6E
1519146248.82,14950,10.81,72582.3,-13.59,-15.43,-15.35,0,*66
1519146250.12,14951,10.81,72578.5,-13.57,-15.39,-15.43,0,*65
1519146251.39,14952,10.81,72584.5,-13.59,-15.43,-15.35,0,*64
1519146252.66,14953,10.81,72580.5,-13.59,-15.35,-15.43,0,*65
1519146253.95,14954,10.81,72582.0,-13.57,-15.29,-15.39,0,*6C
1519146255.23,14955,10.81,72584.0,-13.57,-15.39,-15.29,0,*6D
1519146256.53,14956,10.81,72584.3,-13.57,-15.39,-15.43,0,*62
1519146257.83,14957,10.81,72578.3,-13.57,-15.39,-15.39,0,*6E
1519146259.13,14958,10.75,72582.3,-13.57,-15.39,-15.35,0,*6D
1519146260.39,14959,10.81,72584.8,-13.57,-15.29,-15.29,0,*60
1519146261.67,14960,10.81,72580.0,-13.57,-15.39,-15.29,0,*6B
1519146262.94,14961,10.75,72580.5,-13.59,-15.35,-15.35,0,*65
1519146264.2,14962,10.81,72580.5,-13.57,-15.29,-15.29,0,*68
1519146265.48,14963,10.81,72578.8,-13.57,-15.29,-15.39,0,*68
1519146266.73,14964,10.81,72586.3,-13.57,-15.29,-15.29,0,*6E
1519146268.02,14965,10.81,72584.5,-13.57,-15.39,-15.29,0,*6E
1519146269.3,14966,10.75,72580.0,-13.57,-15.43,-15.49,0,*66
1519146270.6,14967,10.81,72582.5,-13.57,-15.43,-15.39,0,*60
1519146271.88,14968,10.81,72588.0,-13.57,-15.39,-15.29,0,*63
1519146273.14,14969,10.81,72584.8,-13.57,-15.29,-15.29,0,*63
1519146274.4,14970,10.75,72580.5,-13.57,-15.29,-15.29,0,*6B
1519146275.67,14971,10.81,72580.5,-13.59,-15.43,-15.35,0,*65
1519146276.97,14972,10.81,72586.3,-13.57,-15.39,-15.39,0,*69
1519146278.23,14973,10.81,72586.3,-13.57,-15.29,-15.29,0,*68
1519146279.53,14974,10.81,72580.5,-13.57,-15.39,-15.39,0,*6F
1519146280.84,14975,10.81,72580.0,-13.57,-15.39,-15.39,0,*6E
1519146282.14,14976,10.81,72586.0,-13.57,-15.39,-15.39,0,*6D
1519146283.44,14977,10.81,72576.8,-13.57,-15.39,-15.43,0,*61
1519146284.75,14978,10.81,72578.3,-13.57,-15.39,-15.43,0,*6E
1519146285.99,14979,10.81,72582.5,-13.55,-15.49,-15.43,0,*6A
1519146287.24,14980,10.81,72576.5,-13.57,-15.49,-15.49,0,*64
1519146288.5,14981,10.75,72576.3,-13.57,-15.49,-15.49,0,*65
1519146289.77,14982,10.81,72578.8,-13.57,-15.57,-15.63,0,*61
1519146290.98,14983,10.81,72572.8,-13.59,-15.63,-15.63,0,*69
1519146292.21,14984,10.81,72580.8,-13.59,-15.53,-15.53,0,*6E
1519146293.43,14985,10.75,72576.5,-13.59,-15.49,-15.53,0,*64
1519146294.71,14986,10.81,72574.8,-13.57,-15.49,-15.43,0,*68
1519146295.93,14987,10.81,72574.3,-13.59,-15.53,-15.53,0,*6D
1519146297.16,14988,10.81,72578.5,-13.59,-15.53,-15.53,0,*62
1519146298.44,14989,10.81,72572.8,-13.57,-15.43,-15.49,0,*67
1519146299.71,14990,10.81,72580.0,-13.59,-15.43,-15.43,0,*6B
1519146300.96,14991,10.81,72576.0,-13.59,-15.43,-15.49,0,*60
1519146302.21,14992,10.81,72576.5,-13.59,-15.43,-15.49,0,*63
1519146303.52,14993,10.81,72574.5,-13.57,-15.39,-15.39,0,*66
1519146304.82,14994,10.81,72580.5,-13.57,-15.39,-15.39,0,*61
1519146306.08,14995,10.81,72582.3,-13.57,-15.29,-15.29,0,*60
1519146307.35,14996,10.81,72580.8,-13.59,-15.43,-15.43,0,*6D
1519146308.66,14997,10.75,72576.5,-13.57,-15.39,-15.43,0,*6F
1519146309.91,14998,10.75,72572.5,-13.59,-15.43,-15.49,0,*69
1519146311.15,14999,10.81,72574.5,-13.59,-15.49,-15.43,0,*68
1519146312.38,15000,10.81,72582.0,-13.59,-15.49,-15.49,0,*6A
1519146313.68,15001,10.81,72572.5,-13.57,-15.43,-15.43,0,*65
1519146314.9,15002,10.81,72578.5,-13.59,-15.63,-15.53,0,*6B
1519146316.13,15003,10.75,72584.0,-13.59,-15.49,-15.49,0,*69
1519146317.41,15004,10.81,72586.5,-13.57,-15.35,-15.49,0,*6B
1519146318.68,15005,10.81,72580.3,-13.57,-15.49,-15.57,0,*6E
1519146319.9,15006,10.81,72578.0,-13.59,-15.53,-15.63,0,*6F
1519146321.15,15007,10.81,72572.5,-13.59,-15.43,-15.53,0,*6C
1519146322.38,15008,10.81,72578.5,-13.59,-15.53,-15.53,0,*62
1519146323.66,15009,10.75,72578.3,-13.57,-15.43,-15.49,0,*67
1519146324.96,15010,10.81,72580.3,-13.57,-15.39,-15.39,0,*65
1519146326.23,15011,10.81,72576.5,-13.59,-15.43,-15.43,0,*6A
1519146327.51,15012,10.81,72580.8,-13.59,-15.35,-15.43,0,*68
1519146328.78,15013,10.81,72584.3,-13.59,-15.35,-15.43,0,*69
1519146330.05,15014,10.81,72580.0,-13.59,-15.43,-15.35,0,*6E
1519146331.32,15015,10.81,72578.8,-13.59,-15.35,-15.43,0,*6F
1519146332.56,15016,10.81,72576.0,-13.59,-15.29,-15.35,0,*60
1519146333.81,15017,10.81,72572.3,-13.59,-15.29,-15.43,0,*60
1519146335.06,15018,10.81,72576.3,-13.59,-15.43,-15.49,0,*69
1519146336.34,15019,10.81,72580.5,-13.59,-15.39,-15.39,0,*62
1519146337.61,15020,10.75,72578.5,-13.59,-15.35,-15.35,0,*68
1519146338.89,15021,10.81,72574.8,-13.57,-15.39,-15.29,0,*66
1519146340.19,15022,10.81,72574.0,-13.57,-15.39,-15.39,0,*64
1519146341.46,15023,10.81,72572.8,-13.59,-15.35,-15.43,0,*6A
1519146342.74,15024,10.81,72580.5,-13.57,-15.39,-15.29,0,*63
1519146344.01,15025,10.81,72578.8,-13.59,-15.43,-15.35,0,*6C
1519146345.28,15026,10.81,72580.8,-13.59,-15.43,-15.35,0,*6F
1519146346.55,15027,10.81,72578.8,-13.59,-15.35,-15.35,0,*6F
1519146347.81,15028,10.81,72590.0,-13.57,-15.29,-15.29,0,*6E
1519146349.08,15029,10.81,72578.8,-13.59,-15.43,-15.43,0,*61
1519146350.33,15030,10.81,72580.5,-13.59,-15.35,-15.49,0,*62
1519146351.58,15031,10.75,72572.3,-13.59,-15.35,-15.49,0,*63
1519146352.84,15032,10.81,72580.3,-13.57,-15.29,-15.29,0,*65
1519146354.09,15033,10.81,72578.0,-13.59,-15.43,-15.49,0,*60
1519146355.34,15034,10.81,72582.3,-13.59,-15.43,-15.49,0,*67
1519146356.57,15035,10.81,72576.5,-13.59,-15.49,-15.53,0,*67
1519146357.79,15036,10.75,72576.8,-13.59,-15.49,-15.49,0,*6F
1519146359.06,15037,10.81,72578.8,-13.59,-15.43,-15.43,0,*6E
1519146360.31,15038,10.81,72580.0,-13.59,-15.43,-15.53,0,*60
1519146361.56,15039,10.81,72582.5,-13.59,-15.43,-15.49,0,*6A
1519146362.84,15040,10.81,72580.0,-13.59,-15.35,-15.43,0,*6F
1519146364.11,15041,10.81,72580.5,-13.59,-15.35,-15.43,0,*6E
1519146365.4,15042,10.81,72584.3,-13.61,-15.35,-15.43,0,*66
1519146366.67,15043,10.75,72576.5,-13.59,-15.35,-15.35,0,*6D
1519146367.94,15044,10.81,72582.8,-13.59,-15.35,-15.35,0,*6A
1519146369.23,15045,10.81,72580.3,-13.61,-15.35,-15.35,0,*60
1519146370.5,15046,10.75,72582.0,-13.59,-15.35,-15.35,0,*68
1519146371.79,15047,10.81,72580.0,-13.61,-15.35,-15.35,0,*62
1519146373.08,15048,10.81,72584.5,-13.61,-15.35,-15.35,0,*6D
1519146374.38,15049,10.81,72580.3,-13.61,-15.35,-15.43,0,*6D
1519146375.65,15050,10.81,72578.3,-13.59,-15.35,-15.43,0,*6E
1519146376.92,15051,10.81,72582.3,-13.59,-15.35,-15.43,0,*6F
1519146378.19,15052,10.75,72578.8,-13.59,-15.35,-15.35,0,*6D
1519146379.46,15053,10.81,72586.8,-13.59,-15.43,-15.43,0,*6C
1519146380.68,15054,10.81,72578.5,-13.59,-15.49,-15.49,0,*6B
1519146381.96,15055,10.81,72578.5,-13.61,-15.43,-15.53,0,*60
1519146383.23,15056,10.81,72582.5,-13.61,-15.35,-15.49,0,*69
1519146384.52,15057,10.81,72582.8,-13.61,-15.35,-15.35,0,*63
1519146385.82,15058,10.81,72584.0,-13.61,-15.35,-15.43,0,*6D
1519146387.11,15059,10.81,72580.5,-13.61,-15.35,-15.35,0,*6D
1519146388.39,15060,10.81,72578.3,-13.61,-15.21,-15.35,0,*62
1519146389.66,15061,10.75,72582.0,-13.61,-15.29,-15.21,0,*6E
1519146390.93,15062,10.75,72584.5,-13.61,-15.21,-15.29,0,*6D
1519146392.22,15063,10.75,72580.0,-13.61,-15.35,-15.35,0,*64
1519146393.47,15064,10.81,72580.8,-13.61,-15.29,-15.29,0,*63
1519146394.75,15065,10.81,72578.0,-13.61,-15.29,-15.43,0,*6E
1519146396.02,15066,10.75,72578.8,-13.61,-15.29,-15.35,0,*6C
1519146397.29,15067,10.81,72584.0,-13.63,-15.35,-15.39,0,*6E
1519146398.58,15068,10.75,72578.3,-13.61,-15.35,-15.35,0,*6F
1519146399.87,15069,10.75,72572.5,-13.61,-15.43,-15.35,0,*6F
1519146401.12,15070,10.75,72574.0,-13.63,-15.39,-15.53,0,*68
1519146402.39,15071,10.81,72576.5,-13.63,-15.39,-15.39,0,*65
1519146403.67,15072,10.75,72574.8,-13.61,-15.35,-15.49,0,*6F
1519146404.94,15073,10.81,72578.8,-13.59,-15.35,-15.35,0,*6E
1519146406.23,15074,10.81,72574.5,-13.61,-15.21,-15.43,0,*66
1519146407.49,15075,10.81,72580.0,-13.61,-15.15,-15.35,0,*61
1519146408.74,15076,10.75,72576.3,-13.61,-15.15,-15.15,0,*60
1519146409.99,15077,10.81,72578.3,-13.61,-15.15,-15.29,0,*6E
1519146411.26,15078,10.81,72586.3,-13.61,-15.21,-15.29,0,*66
1519146412.52,15079,10.81,72572.8,-13.63,-15.21,-15.35,0,*68
1519146413.8,15080,10.81,72584.0,-13.61,-15.21,-15.21,0,*69
1519146415.07,15081,10.81,72580.0,-13.61,-15.21,-15.29,0,*60
1519146416.35,15082,10.81,72584.3,-13.61,-15.21,-15.21,0,*6B
1519146417.64,15083,10.81,72576.8,-13.61,-15.21,-15.21,0,*6A
1519146418.89,15084,10.81,72586.0,-13.61,-15.15,-15.29,0,*62
1519146420.13,15085,10.81,72584.3,-13.63,-15.25,-15.35,0,*6F
1519146421.38,15086,10.81,72580.0,-13.63,-15.25,-15.35,0,*6C
1519146422.64,15087,10.81,72582.3,-13.61,-15.15,-15.21,0,*69
1519146423.91,15088,10.75,72578.0,-13.61,-15.07,-15.21,0,*65
1519146425.15,15089,10.81,72576.3,-13.63,-15.21,-15.25,0,*66
1519146426.4,15090,10.81,72578.5,-13.61,-15.15,-15.29,0,*67
1519146427.67,15091,10.81,72578.5,-13.61,-15.21,-15.29,0,*61
1519146428.94,15092,10.75,72568.0,-13.61,-15.21,-15.29,0,*62
1519146430.2,15093,10.75,72572.8,-13.61,-15.07,-15.21,0,*6F
1519146431.44,15094,10.81,72576.3,-13.61,-15.07,-15.15,0,*6F
1519146432.66,15095,10.81,72574.3,-13.63,-15.11,-15.25,0,*68
1519146433.9,15096,10.81,72578.8,-13.61,-15.07,-15.15,0,*6D
1519146435.12,15097,10.81,72580.0,-13.63,-15.11,-15.25,0,*6A
1519146436.37,15098,10.81,72578.5,-13.61,-15.15,-15.15,0,*60
1519146437.63,15099,10.81,72576.8,-13.61,-15.07,-15.21,0,*65
1519146438.84,15100,10.75,72572.0,-13.63,-15.11,-15.07,0,*65
1519146440.06,15101,10.81,72580.8,-13.63,-15.07,-15.07,0,*63
1519146441.34,15102,10.81,72578.5,-13.61,-15.01,-15.01,0,*62
1519146442.62,15103,10.81,72576.8,-13.61,-15.01,-15.01,0,*63
1519146443.91,15104,10.75,72580.3,-13.61,-15.01,-14.93,0,*6E
1519146445.14,15105,10.81,72578.8,-13.63,-14.97,-15.07,0,*6F
1519146446.38,15106,10.75,72578.0,-13.63,-15.07,-14.97,0,*6C
1519146447.64,15107,10.75,72576.5,-13.63,-15.21,-15.35,0,*60
1519146448.89,15108,10.81,72586.5,-13.63,-15.25,-15.35,0,*6B
1519146450.16,15109,10.81,72578.5,-13.63,-15.35,-15.35,0,*6B
1519146451.38,15110,10.81,72578.3,-13.63,-15.25,-15.25,0,*63
1519146452.62,15111,10.81,72578.3,-13.63,-15.11,-15.21,0,*61
1519146453.88,15112,10.81,72576.0,-13.63,-15.21,-15.21,0,*61
1519146455.12,15113,10.81,72576.8,-13.63,-15.11,-15.21,0,*63
1519146456.36,15114,10.75,72576.3,-13.63,-15.07,-15.21,0,*63
1519146457.6,15115,10.81,72582.3,-13.63,-15.21,-15.25,0,*62
1519146458.81,15116,10.81,72580.8,-13.63,-15.11,-15.11,0,*65
1519146460.02,15117,10.75,72578.3,-13.63,-15.11,-15.11,0,*64
1519146461.26,15118,10.81,72586.8,-13.63,-15.11,-15.21,0,*68
1519146462.5,15119,10.75,72576.5,-13.61,-15.11,-15.11,0,*68
1519146463.71,15120,10.75,72576.0,-13.63,-15.11,-15.07,0,*67
1519146464.97,15121,10.81,72576.8,-13.63,-15.21,-15.35,0,*64
1519146466.24,15122,10.81,72582.8,-13.61,-15.15,-15.21,0,*67
1519146467.5,15123,10.75,72578.3,-13.63,-15.21,-15.21,0,*63
1519146468.76,15124,10.81,72578.8,-13.63,-15.21,-15.21,0,*64
1519146470.0,15125,10.81,72576.8,-13.61,-15.07,-15.07,0,*67
1519146471.21,15126,10.81,72580.0,-13.63,-15.11,-15.11,0,*66
1519146472.45,15127,10.81,72582.8,-13.63,-15.11,-15.21,0,*64
1519146473.69,15128,10.81,72578.0,-13.61,-15.15,-15.15,0,*6A
1519146474.93,15129,10.81,72576.0,-13.63,-15.21,-15.11,0,*6A
1519146476.14,15130,10.81,72572.5,-13.63,-15.11,-15.11,0,*61
1519146477.39,15131,10.81,72572.5,-13.63,-15.35,-15.25,0,*61
1519146478.64,15132,10.81,72574.5,-13.63,-15.35,-15.25,0,*62
1519146479.87,15133,10.75,72572.8,-13.63,-15.25,-15.25,0,*62
1519146481.13,15134,10.75,72572.3,-13.63,-15.21,-15.35,0,*60
1519146482.4,15135,10.81,72578.8,-13.63,-15.35,-15.35,0,*64
1519146483.64,15136,10.81,72572.3,-13.63,-15.25,-15.35,0,*66
1519146484.87,15137,10.81,72576.5,-13.63,-15.25,-15.25,0,*66
1519146486.12,15138,10.81,72578.3,-13.61,-15.29,-15.29,0,*6B
1519146487.37,15139,10.75,72566.8,-13.63,-15.35,-15.25,0,*69
1519146488.6,15140,10.81,72570.5,-13.63,-15.25,-15.25,0,*66
1519146489.84,15141,10.81,72570.5,-13.63,-15.35,-15.25,0,*66
1519146491.07,15142,10.75,72570.3,-13.65,-15.25,-15.25,0,*62
1519146492.34,15143,10.81,72568.3,-13.65,-15.35,-15.35,0,*63
1519146493.56,15144,10.75,72564.8,-13.63,-15.25,-15.25,0,*62
1519146494.83,15145,10.81,72566.5,-13.63,-15.35,-15.35,0,*63